| time (UTC) | temp F | wind direction | speed MPH | gust MPH | rain 1hr in | rain 24hr in | rain mn in | humidity % | barometer mb |
| 20260507090541 | 67 | 274 | 0.0 | 0.0 | 0.19 | 0.56 | 0.56 | 89 | 1016.0 |
| 20260507090038 | 67 | 266 | 1.0 | 3.0 | 0.28 | 0.55 | 0.55 | 89 | 1014.5 |
| 20260507085535 | 67 | 298 | 0.0 | 0.0 | 0.24 | 0.53 | 0.53 | 89 | 1014.2 |
| 20260507085032 | 67 | 174 | 3.0 | 3.0 | 0.07 | 0.50 | 0.50 | 89 | 1015.9 |
| 20260507084528 | 67 | 283 | 0.0 | 0.0 | 0.19 | 0.49 | 0.49 | 89 | 1016.1 |
| 20260507084026 | 67 | 281 | 0.0 | 0.0 | 0.19 | 0.49 | 0.49 | 89 | 1016.1 |
| 20260507083521 | 67 | 227 | 1.0 | 2.0 | 0.00 | 0.46 | 0.46 | 89 | 1016.0 |
| 20260507083019 | 67 | 249 | 0.0 | 0.0 | 0.00 | 0.46 | 0.46 | 89 | 1016.3 |
| 20260507082515 | 67 | 267 | 0.0 | 0.0 | 0.00 | 0.46 | 0.46 | 89 | 1016.2 |
| 20260507082011 | 67 | 269 | 0.0 | 0.0 | 0.00 | 0.46 | 0.46 | 89 | 1016.2 |
| 20260507081508 | 67 | 270 | 0.0 | 0.0 | 0.00 | 0.46 | 0.46 | 89 | 1016.1 |
| 20260507081005 | 67 | 238 | 0.0 | 0.0 | 0.00 | 0.46 | 0.46 | 89 | 1015.8 |
| 20260507080500 | 67 | 264 | 0.0 | 0.0 | 0.00 | 0.46 | 0.46 | 89 | 1015.9 |
| 20260507075956 | 67 | 279 | 0.0 | 0.0 | 0.05 | 0.46 | 0.46 | 89 | 1015.8 |
| 20260507075452 | 67 | 280 | 0.0 | 0.0 | 0.05 | 0.46 | 0.46 | 89 | 1016.1 |
| 20260507074949 | 67 | 279 | 0.0 | 0.0 | 0.00 | 0.45 | 0.45 | 89 | 1016.2 |
| 20260507074446 | 67 | 285 | 0.0 | 0.0 | 0.12 | 0.45 | 0.45 | 89 | 1016.2 |
| 20260507073944 | 67 | 275 | 0.0 | 0.0 | 0.31 | 0.45 | 0.45 | 89 | 1016.3 |
| 20260507073440 | 67 | 210 | 2.0 | 3.0 | 0.24 | 0.43 | 0.43 | 89 | 1016.3 |
| 20260507072937 | 67 | 272 | 1.0 | 2.0 | 0.19 | 0.41 | 0.41 | 89 | 1016.4 |
| 20260507072434 | 67 | 196 | 2.0 | 2.0 | 0.07 | 0.39 | 0.39 | 89 | 1016.4 |
| 20260507071932 | 67 | 212 | 2.0 | 3.0 | 0.00 | 0.38 | 0.38 | 89 | 1016.6 |
| 20260507071428 | 67 | 206 | 1.0 | 2.0 | 0.00 | 0.38 | 0.38 | 89 | 1016.4 |
| 20260507070925 | 67 | 244 | 3.0 | 5.0 | 0.00 | 0.38 | 0.38 | 89 | 1016.1 |
| 20260507070423 | 67 | 270 | 0.0 | 0.0 | 0.00 | 0.38 | 0.38 | 89 | 1016.2 |
| 20260507065919 | 67 | 125 | 0.0 | 0.0 | 0.00 | 0.38 | 0.38 | 89 | 1016.2 |
| 20260507065416 | 67 | 207 | 0.0 | 0.0 | 0.00 | 0.38 | 0.38 | 89 | 1016.0 |
| 20260507064913 | 67 | 269 | 0.0 | 0.0 | 0.05 | 0.38 | 0.38 | 89 | 1016.2 |
| 20260507064411 | 67 | 266 | 0.0 | 0.0 | 0.17 | 0.38 | 0.38 | 89 | 1015.4 |
| 20260507063909 | 67 | 164 | 0.0 | 2.0 | 0.38 | 0.37 | 0.37 | 89 | 1015.4 |
| 20260507063406 | 67 | 262 | 1.0 | 2.0 | 0.31 | 0.35 | 0.35 | 89 | 1015.9 |
| 20260507062903 | 67 | 183 | 2.0 | 2.0 | 0.05 | 0.31 | 0.31 | 89 | 1015.9 |
| 20260507062359 | 67 | 231 | 0.0 | 0.0 | 0.07 | 0.30 | 0.30 | 89 | 1016.1 |
| 20260507061857 | 67 | 256 | 1.0 | 2.0 | 0.12 | 0.30 | 0.30 | 89 | 1016.2 |
| 20260507061355 | 67 | 254 | 0.0 | 0.0 | 0.17 | 0.29 | 0.29 | 89 | 1016.2 |
| 20260507060853 | 68 | 299 | 3.0 | 5.0 | 0.12 | 0.28 | 0.28 | 89 | 1016.1 |
| 20260507060349 | 68 | 152 | 3.0 | 3.0 | 0.00 | 0.26 | 0.26 | 89 | 1017.1 |
| 20260507055846 | 68 | 193 | 2.0 | 3.0 | 0.07 | 0.26 | 0.26 | 89 | 1017.1 |
| 20260507055341 | 68 | 141 | 2.0 | 2.0 | 0.12 | 0.26 | 0.26 | 89 | 1017.4 |
| 20260507054839 | 68 | 154 | 0.0 | 2.0 | 0.12 | 0.25 | 0.25 | 89 | 1017.2 |
| 20260507054334 | 68 | 249 | 0.0 | 0.0 | 0.12 | 0.24 | 0.24 | 89 | 1017.2 |
| 20260507053832 | 68 | 277 | 0.0 | 2.0 | 0.19 | 0.24 | 0.24 | 89 | 1017.0 |
| 20260507053329 | 68 | 188 | 2.0 | 3.0 | 0.14 | 0.22 | 0.22 | 89 | 1016.7 |
| 20260507052828 | 68 | 209 | 2.0 | 3.0 | 0.12 | 0.21 | 0.21 | 89 | 1016.9 |
| 20260507052324 | 68 | 136 | 2.0 | 3.0 | 0.17 | 0.20 | 0.20 | 89 | 1016.7 |
| 20260507051822 | 68 | 110 | 3.0 | 3.0 | 0.31 | 0.19 | 0.19 | 89 | 1017.2 |
| 20260507051320 | 68 | 5 | 1.0 | 2.0 | 0.35 | 0.17 | 0.17 | 89 | 1017.7 |
| 20260507050816 | 68 | 291 | 0.0 | 2.0 | 0.38 | 0.15 | 0.15 | 89 | 1018.5 |
| 20260507050313 | 68 | 228 | 2.0 | 2.0 | 0.26 | 0.11 | 0.11 | 89 | 1019.5 |
| 20260507045810 | 68 | 231 | 3.0 | 5.0 | 0.17 | 0.09 | 0.09 | 89 | 1019.0 |
| 20260507045307 | 68 | 224 | 0.0 | 2.0 | 0.17 | 0.07 | 0.07 | 89 | 1018.6 |
| 20260507044803 | 68 | 243 | 0.0 | 2.0 | 0.19 | 0.06 | 0.06 | 89 | 1018.5 |
| 20260507044300 | 68 | 250 | 0.0 | 0.0 | 0.12 | 0.05 | 0.05 | 89 | 1017.9 |
| 20260507043756 | 68 | 251 | 0.0 | 0.0 | 0.12 | 0.04 | 0.04 | 89 | 1017.9 |
| 20260507043253 | 68 | 208 | 0.0 | 2.0 | 0.05 | 0.03 | 0.03 | 89 | 1017.9 |
| 20260507042749 | 68 | 269 | 0.0 | 0.0 | 0.07 | 0.02 | 0.02 | 89 | 1017.7 |
| 20260507042244 | 68 | 243 | 0.0 | 0.0 | 0.07 | 0.02 | 0.02 | 89 | 1017.8 |
| 20260507041742 | 68 | 192 | 0.0 | 0.0 | 0.00 | 0.01 | 0.01 | 89 | 1017.8 |
| 20260507041238 | 68 | 270 | 0.0 | 0.0 | 0.05 | 0.01 | 0.01 | 89 | 1018.2 |
| 20260507040735 | 68 | 270 | 0.0 | 2.0 | 0.05 | 0.01 | 0.01 | 89 | 1018.0 |
| 20260507040231 | 68 | 228 | 0.0 | 0.0 | 0.00 | 0.00 | 0.00 | 89 | 1018.3 |
| 20260507035727 | 68 | 255 | 0.0 | 2.0 | 0.00 | 0.40 | 0.40 | 89 | 1018.5 |
| 20260507035223 | 68 | 262 | 0.0 | 0.0 | 0.00 | 0.40 | 0.40 | 89 | 1018.5 |
| 20260507034721 | 68 | 255 | 0.0 | 0.0 | 0.00 | 0.40 | 0.40 | 89 | 1018.3 |
| 20260507034217 | 68 | 257 | 0.0 | 0.0 | 0.00 | 0.40 | 0.40 | 89 | 1017.6 |
| 20260507033716 | 69 | 268 | 0.0 | 0.0 | 0.00 | 0.40 | 0.40 | 89 | 1017.9 |
| 20260507033213 | 69 | 262 | 0.0 | 0.0 | 0.07 | 0.40 | 0.40 | 89 | 1018.0 |
| 20260507032710 | 69 | 234 | 0.0 | 0.0 | 0.07 | 0.40 | 0.40 | 89 | 1017.6 |
| 20260507032206 | 69 | 266 | 0.0 | 0.0 | 0.00 | 0.39 | 0.39 | 89 | 1017.8 |
| 20260507031703 | 69 | 271 | 0.0 | 0.0 | 0.00 | 0.39 | 0.39 | 89 | 1017.7 |
| 20260507031200 | 69 | 251 | 0.0 | 2.0 | 0.12 | 0.39 | 0.39 | 89 | 1017.7 |
| 20260507030656 | 69 | 263 | 0.0 | 0.0 | 0.90 | 0.39 | 0.39 | 89 | 1017.8 |
| 20260507030154 | 69 | 256 | 0.0 | 0.0 | 1.39 | 0.38 | 0.38 | 89 | 1017.9 |
| 20260507025651 | 69 | 266 | 0.0 | 0.0 | 0.78 | 0.28 | 0.28 | 89 | 1018.3 |
| 20260507025148 | 69 | 252 | 0.0 | 0.0 | 0.00 | 0.15 | 0.15 | 89 | 1019.5 |
| 20260507024646 | 70 | 192 | 1.0 | 3.0 | 0.05 | 0.15 | 0.15 | 89 | 1018.8 |
| 20260507024143 | 70 | 234 | 1.0 | 3.0 | 0.05 | 0.15 | 0.15 | 89 | 1019.0 |
| 20260507023638 | 70 | 236 | 0.0 | 0.0 | 0.07 | 0.14 | 0.14 | 89 | 1018.7 |
| 20260507023136 | 70 | 153 | 1.0 | 5.0 | 0.26 | 0.14 | 0.14 | 89 | 1018.7 |
| 20260507022633 | 70 | 284 | 0.0 | 0.0 | 0.42 | 0.14 | 0.14 | 89 | 1018.4 |
| 20260507022128 | 70 | 228 | 0.0 | 0.0 | 0.12 | 0.09 | 0.09 | 89 | 1019.0 |
| 20260507021625 | 70 | 271 | 0.0 | 0.0 | 0.00 | 0.07 | 0.07 | 89 | 1018.8 |
| 20260507021120 | 70 | 288 | 0.0 | 0.0 | 0.00 | 0.07 | 0.07 | 89 | 1018.0 |
| 20260507020619 | 70 | 287 | 0.0 | 0.0 | 0.00 | 0.07 | 0.07 | 89 | 1017.7 |
| 20260507020115 | 70 | 322 | 0.0 | 0.0 | 0.07 | 0.07 | 0.07 | 89 | 1017.5 |
| 20260507015614 | 71 | 277 | 0.0 | 0.0 | 0.19 | 0.07 | 0.07 | 89 | 1017.5 |
| 20260507015111 | 71 | 280 | 0.0 | 0.0 | 0.24 | 0.06 | 0.06 | 89 | 1017.7 |
| 20260507014607 | 71 | 275 | 0.0 | 0.0 | 0.12 | 0.04 | 0.04 | 89 | 1017.8 |
| 20260507014103 | 71 | 288 | 0.0 | 0.0 | 0.00 | 0.02 | 0.02 | 89 | 1018.1 |
| 20260507013559 | 71 | 290 | 0.0 | 0.0 | 0.05 | 0.02 | 0.02 | 89 | 1017.8 |
| 20260507013057 | 71 | 290 | 0.0 | 0.0 | 0.05 | 0.02 | 0.02 | 88 | 1018.0 |
| 20260507012554 | 71 | 290 | 0.0 | 0.0 | 0.00 | 0.01 | 0.01 | 88 | 1018.0 |
| 20260507012050 | 71 | 290 | 0.0 | 0.0 | 0.00 | 0.01 | 0.01 | 87 | 1018.2 |
| 20260507011548 | 72 | 290 | 0.0 | 0.0 | 0.07 | 0.01 | 0.01 | 86 | 1017.8 |
| 20260507011044 | 72 | 290 | 0.0 | 0.0 | 0.07 | 0.01 | 0.01 | 85 | 1017.9 |
| 20260507010539 | 73 | 284 | 0.0 | 0.0 | 0.00 | 0.00 | 0.00 | 84 | 1018.3 |
| 20260507010035 | 74 | 284 | 0.0 | 0.0 | 0.00 | 0.00 | 0.00 | 82 | 1018.2 |
| 20260507005533 | 75 | 283 | 0.0 | 0.0 | 0.00 | 0.00 | 0.00 | 80 | 1017.9 |
| 20260507005029 | 76 | 278 | 0.0 | 0.0 | 0.00 | 0.00 | 0.00 | 76 | 1018.1 |
| 20260507004526 | 76 | 264 | 0.0 | 0.0 | 0.00 | 0.00 | 0.00 | 74 | 1018.1 |
| 20260507004023 | 76 | 142 | 5.0 | 7.0 | 0.00 | 0.00 | 0.00 | 74 | 1018.4 |
| 20260507003519 | 76 | 243 | 5.0 | 9.0 | 0.00 | 0.00 | 0.00 | 74 | 1018.1 |
| 20260507003014 | 76 | 267 | 3.0 | 3.0 | 0.00 | 0.00 | 0.00 | 74 | 1018.0 |
| 20260507002511 | 76 | 193 | 3.0 | 3.0 | 0.00 | 0.00 | 0.00 | 74 | 1018.1 |
| 20260507002007 | 76 | 263 | 0.0 | 0.0 | 0.00 | 0.00 | 0.00 | 74 | 1018.0 |
| 20260507001503 | 77 | 176 | 3.0 | 3.0 | 0.00 | 0.00 | 0.00 | 73 | 1018.0 |
| 20260507001001 | 77 | 187 | 0.0 | 3.0 | 0.00 | 0.00 | 0.00 | 73 | 1018.0 |
| 20260507000457 | 77 | 146 | 3.0 | 3.0 | 0.00 | 0.00 | 0.00 | 73 | 1018.0 |
| 20260506235952 | 77 | 185 | 0.0 | 0.0 | 0.00 | 0.00 | 0.00 | 73 | 1017.9 |
| 20260506235450 | 77 | 264 | 0.0 | 0.0 | 0.00 | 0.00 | 0.00 | 73 | 1018.2 |
| 20260506234946 | 77 | 196 | 4.0 | 5.0 | 0.00 | 0.00 | 0.00 | 73 | 1018.1 |
| 20260506234444 | 77 | 252 | 2.0 | 3.0 | 0.00 | 0.00 | 0.00 | 73 | 1017.7 |
| 20260506233941 | 77 | 259 | 0.0 | 2.0 | 0.00 | 0.00 | 0.00 | 72 | 1017.5 |
| 20260506233437 | 77 | 205 | 2.0 | 2.0 | 0.00 | 0.00 | 0.00 | 73 | 1017.3 |
| 20260506232934 | 77 | 215 | 2.0 | 3.0 | 0.00 | 0.00 | 0.00 | 73 | 1017.2 |
| 20260506232430 | 77 | 266 | 1.0 | 2.0 | 0.00 | 0.00 | 0.00 | 72 | 1017.4 |
| 20260506231926 | 77 | 210 | 3.0 | 5.0 | 0.00 | 0.00 | 0.00 | 71 | 1017.4 |
| 20260506231423 | 77 | 267 | 0.0 | 0.0 | 0.00 | 0.00 | 0.00 | 71 | 1017.7 |
| 20260506230921 | 78 | 261 | 1.0 | 2.0 | 0.00 | 0.00 | 0.00 | 71 | 1017.7 |
| 20260506230417 | 78 | 268 | 3.0 | 5.0 | 0.00 | 0.00 | 0.00 | 71 | 1017.3 |
| 20260506225914 | 78 | 254 | 2.0 | 2.0 | 0.00 | 0.00 | 0.00 | 71 | 1017.7 |
| 20260506225411 | 78 | 266 | 0.0 | 2.0 | 0.00 | 0.00 | 0.00 | 71 | 1017.7 |
| 20260506224908 | 78 | 201 | 0.0 | 0.0 | 0.00 | 0.00 | 0.00 | 70 | 1017.8 |
| 20260506224405 | 78 | 259 | 0.0 | 0.0 | 0.00 | 0.00 | 0.00 | 70 | 1017.8 |
| 20260506223901 | 78 | 263 | 0.0 | 0.0 | 0.00 | 0.00 | 0.00 | 70 | 1017.7 |
| 20260506223356 | 78 | 257 | 0.0 | 0.0 | 0.00 | 0.00 | 0.00 | 69 | 1017.7 |
| 20260506222854 | 78 | 253 | 4.0 | 5.0 | 0.00 | 0.00 | 0.00 | 69 | 1017.3 |
| 20260506222350 | 78 | 257 | 3.0 | 3.0 | 0.00 | 0.00 | 0.00 | 70 | 1017.5 |
| 20260506221848 | 78 | 249 | 2.0 | 2.0 | 0.00 | 0.00 | 0.00 | 69 | 1017.6 |
| 20260506221345 | 78 | 218 | 3.0 | 3.0 | 0.00 | 0.00 | 0.00 | 69 | 1017.8 |
| 20260506220842 | 78 | 200 | 3.0 | 3.0 | 0.00 | 0.00 | 0.00 | 69 | 1017.8 |
| 20260506220338 | 78 | 289 | 0.0 | 0.0 | 0.00 | 0.00 | 0.00 | 70 | 1017.7 |
| 20260506215835 | 78 | 245 | 2.0 | 2.0 | 0.00 | 0.00 | 0.00 | 70 | 1017.5 |
| 20260506215330 | 79 | 215 | 5.0 | 7.0 | 0.00 | 0.00 | 0.00 | 69 | 1017.5 |
| 20260506214827 | 79 | 232 | 2.0 | 2.0 | 0.00 | 0.00 | 0.00 | 68 | 1017.5 |
| 20260506214323 | 80 | 159 | 3.0 | 3.0 | 0.00 | 0.00 | 0.00 | 68 | 1017.3 |
| 20260506213822 | 80 | 152 | 5.0 | 5.0 | 0.00 | 0.00 | 0.00 | 67 | 1017.3 |
| 20260506213319 | 79 | 235 | 0.0 | 0.0 | 0.00 | 0.00 | 0.00 | 68 | 1017.3 |
| 20260506212816 | 80 | 193 | 4.0 | 5.0 | 0.00 | 0.00 | 0.00 | 67 | 1017.5 |
| 20260506212312 | 80 | 234 | 2.0 | 3.0 | 0.00 | 0.00 | 0.00 | 68 | 1017.7 |
| 20260506211807 | 80 | 275 | 5.0 | 7.0 | 0.00 | 0.00 | 0.00 | 66 | 1017.6 |
| 20260506211303 | 80 | 253 | 5.0 | 9.0 | 0.00 | 0.00 | 0.00 | 66 | 1017.8 |
| 20260506210801 | 80 | 290 | 1.0 | 2.0 | 0.00 | 0.00 | 0.00 | 66 | 1017.6 |
| 20260506210257 | 79 | 261 | 3.0 | 3.0 | 0.00 | 0.00 | 0.00 | 68 | 1017.7 |
| 20260506205754 | 79 | 234 | 4.0 | 5.0 | 0.00 | 0.00 | 0.00 | 68 | 1017.7 |
| 20260506205250 | 79 | 203 | 3.0 | 3.0 | 0.00 | 0.00 | 0.00 | 68 | 1017.7 |
| 20260506204747 | 79 | 263 | 2.0 | 2.0 | 0.00 | 0.00 | 0.00 | 68 | 1018.0 |
| 20260506204245 | 79 | 252 | 4.0 | 7.0 | 0.00 | 0.00 | 0.00 | 67 | 1018.2 |
| 20260506203742 | 79 | 261 | 1.0 | 2.0 | 0.00 | 0.00 | 0.00 | 67 | 1018.4 |
| 20260506203239 | 80 | 249 | 3.0 | 3.0 | 0.00 | 0.00 | 0.00 | 65 | 1018.4 |
| 20260506202736 | 80 | 265 | 5.0 | 7.0 | 0.00 | 0.00 | 0.00 | 66 | 1018.4 |
| 20260506202233 | 80 | 280 | 3.0 | 5.0 | 0.00 | 0.00 | 0.00 | 65 | 1018.5 |
| 20260506201730 | 80 | 241 | 3.0 | 3.0 | 0.00 | 0.00 | 0.00 | 66 | 1018.5 |
| 20260506201226 | 79 | 258 | 3.0 | 3.0 | 0.00 | 0.00 | 0.00 | 69 | 1018.6 |
| 20260506200723 | 78 | 119 | 2.0 | 3.0 | 0.00 | 0.00 | 0.00 | 68 | 1018.9 |
| 20260506200220 | 78 | 268 | 0.0 | 0.0 | 0.00 | 0.00 | 0.00 | 70 | 1018.8 |
| 20260506195717 | 78 | 263 | 0.0 | 0.0 | 0.00 | 0.00 | 0.00 | 69 | 1018.8 |
| 20260506195213 | 78 | 153 | 3.0 | 3.0 | 0.00 | 0.00 | 0.00 | 68 | 1018.9 |
| 20260506194710 | 78 | 263 | 0.0 | 0.0 | 0.00 | 0.00 | 0.00 | 69 | 1018.9 |
| 20260506194207 | 78 | 243 | 3.0 | 3.0 | 0.00 | 0.00 | 0.00 | 69 | 1019.3 |
| 20260506193705 | 78 | 237 | 0.0 | 0.0 | 0.00 | 0.00 | 0.00 | 68 | 1019.6 |
| 20260506193201 | 79 | 223 | 5.0 | 5.0 | 0.00 | 0.00 | 0.00 | 67 | 1019.5 |
| 20260506192658 | 79 | 235 | 5.0 | 7.0 | 0.00 | 0.00 | 0.00 | 66 | 1019.6 |
| 20260506192154 | 79 | 160 | 3.0 | 5.0 | 0.00 | 0.00 | 0.00 | 66 | 1019.5 |
| 20260506191652 | 79 | 261 | 0.0 | 0.0 | 0.00 | 0.00 | 0.00 | 66 | 1019.8 |
| 20260506191147 | 79 | 199 | 0.0 | 0.0 | 0.00 | 0.00 | 0.00 | 65 | 1019.7 |
| 20260506190645 | 79 | 293 | 2.0 | 2.0 | 0.00 | 0.00 | 0.00 | 65 | 1019.9 |
| 20260506190141 | 79 | 193 | 3.0 | 5.0 | 0.00 | 0.00 | 0.00 | 65 | 1020.0 |
| 20260506185638 | 78 | 194 | 3.0 | 3.0 | 0.00 | 0.00 | 0.00 | 65 | 1019.8 |
| 20260506185134 | 78 | 255 | 3.0 | 5.0 | 0.00 | 0.00 | 0.00 | 66 | 1020.1 |
| 20260506184632 | 77 | 252 | 3.0 | 3.0 | 0.00 | 0.00 | 0.00 | 67 | 1019.9 |
| 20260506184129 | 77 | 206 | 5.0 | 5.0 | 0.00 | 0.00 | 0.00 | 67 | 1020.3 |
| 20260506183626 | 78 | 145 | 5.0 | 5.0 | 0.00 | 0.00 | 0.00 | 66 | 1020.3 |
| 20260506183122 | 78 | 198 | 4.0 | 7.0 | 0.00 | 0.00 | 0.00 | 66 | 1020.1 |
| 20260506182620 | 78 | 278 | 2.0 | 3.0 | 0.00 | 0.00 | 0.00 | 65 | 1020.0 |
| 20260506182116 | 78 | 248 | 5.0 | 7.0 | 0.00 | 0.00 | 0.00 | 66 | 1020.1 |
| 20260506181614 | 78 | 206 | 3.0 | 5.0 | 0.00 | 0.00 | 0.00 | 65 | 1020.1 |
| 20260506181111 | 79 | 237 | 6.0 | 9.0 | 0.00 | 0.00 | 0.00 | 65 | 1020.0 |
| 20260506180608 | 79 | 266 | 1.0 | 2.0 | 0.00 | 0.00 | 0.00 | 64 | 1019.9 |
| 20260506180105 | 79 | 281 | 3.0 | 5.0 | 0.00 | 0.00 | 0.00 | 64 | 1020.0 |
| 20260506175601 | 78 | 246 | 3.0 | 3.0 | 0.00 | 0.00 | 0.00 | 64 | 1020.1 |
| 20260506175057 | 78 | 273 | 4.0 | 7.0 | 0.00 | 0.00 | 0.00 | 64 | 1019.9 |
| 20260506174556 | 79 | 263 | 4.0 | 7.0 | 0.00 | 0.00 | 0.00 | 65 | 1020.2 |
| 20260506174051 | 80 | 233 | 5.0 | 9.0 | 0.00 | 0.00 | 0.00 | 63 | 1019.9 |
| 20260506173550 | 80 | 193 | 2.0 | 3.0 | 0.00 | 0.00 | 0.00 | 62 | 1019.8 |
| 20260506173046 | 78 | 193 | 3.0 | 3.0 | 0.00 | 0.00 | 0.00 | 64 | 1019.9 |
| 20260506172544 | 78 | 263 | 8.0 | 10.0 | 0.00 | 0.00 | 0.00 | 66 | 1019.8 |
| 20260506172040 | 77 | 197 | 5.0 | 9.0 | 0.00 | 0.00 | 0.00 | 66 | 1019.9 |
| 20260506171537 | 77 | 238 | 5.0 | 7.0 | 0.00 | 0.00 | 0.00 | 68 | 1020.1 |
| 20260506171035 | 77 | 246 | 4.0 | 5.0 | 0.00 | 0.00 | 0.00 | 68 | 1020.2 |
| 20260506170532 | 77 | 215 | 5.0 | 7.0 | 0.00 | 0.00 | 0.00 | 67 | 1020.4 |
| 20260506170030 | 77 | 221 | 3.0 | 3.0 | 0.00 | 0.00 | 0.00 | 68 | 1020.2 |
| 20260506165528 | 77 | 294 | 0.0 | 0.0 | 0.00 | 0.00 | 0.00 | 68 | 1020.4 |
| 20260506165024 | 76 | 171 | 5.0 | 7.0 | 0.00 | 0.00 | 0.00 | 67 | 1020.7 |
| 20260506164521 | 76 | 193 | 3.0 | 5.0 | 0.00 | 0.00 | 0.00 | 68 | 1020.7 |
| 20260506164018 | 76 | 234 | 4.0 | 5.0 | 0.00 | 0.00 | 0.00 | 68 | 1020.6 |
| 20260506163514 | 76 | 253 | 5.0 | 5.0 | 0.00 | 0.00 | 0.00 | 67 | 1020.7 |
| 20260506163010 | 76 | 250 | 2.0 | 3.0 | 0.00 | 0.00 | 0.00 | 67 | 1020.8 |
| 20260506162506 | 76 | 262 | 3.0 | 5.0 | 0.00 | 0.00 | 0.00 | 67 | 1020.8 |
| 20260506162004 | 77 | 223 | 2.0 | 3.0 | 0.00 | 0.00 | 0.00 | 66 | 1020.8 |
| 20260506161501 | 76 | 243 | 3.0 | 5.0 | 0.00 | 0.00 | 0.00 | 67 | 1021.2 |
| 20260506160958 | 76 | 263 | 3.0 | 5.0 | 0.00 | 0.00 | 0.00 | 68 | 1021.1 |
| 20260506160455 | 75 | 233 | 4.0 | 5.0 | 0.00 | 0.00 | 0.00 | 68 | 1020.8 |
| 20260506155952 | 75 | 267 | 2.0 | 2.0 | 0.00 | 0.00 | 0.00 | 68 | 1021.5 |
| 20260506155451 | 75 | 241 | 4.0 | 5.0 | 0.00 | 0.00 | 0.00 | 69 | 1021.4 |
| 20260506153623 | 73 | 243 | 3.0 | 3.0 | 0.00 | 0.00 | 0.00 | 73 | 1021.8 |
| 20260506153120 | 73 | 190 | 5.0 | 7.0 | 0.00 | 0.00 | 0.00 | 74 | 1021.8 |
| 20260506152617 | 73 | 256 | 4.0 | 5.0 | 0.00 | 0.00 | 0.00 | 74 | 1021.5 |
| 20260506152115 | 72 | 240 | 2.0 | 3.0 | 0.00 | 0.00 | 0.00 | 74 | 1021.5 |
| 20260506151613 | 71 | 265 | 4.0 | 7.0 | 0.00 | 0.00 | 0.00 | 75 | 1021.6 |
| 20260506151109 | 72 | 243 | 0.0 | 2.0 | 0.00 | 0.00 | 0.00 | 75 | 1021.7 |
| 20260506150606 | 72 | 237 | 0.0 | 0.0 | 0.00 | 0.00 | 0.00 | 75 | 1021.4 |
| 20260506145600 | 71 | 253 | 2.0 | 3.0 | 0.00 | 0.00 | 0.00 | 75 | 1021.4 |
| 20260506145057 | 71 | 236 | 3.0 | 5.0 | 0.00 | 0.00 | 0.00 | 76 | 1021.5 |
| 20260506144554 | 71 | 233 | 0.0 | 0.0 | 0.00 | 0.00 | 0.00 | 75 | 1021.4 |
| 20260506144051 | 71 | 257 | 1.0 | 2.0 | 0.00 | 0.00 | 0.00 | 75 | 1021.6 |
| 20260506143549 | 71 | 241 | 6.0 | 7.0 | 0.00 | 0.00 | 0.00 | 75 | 1021.2 |
| 20260506143047 | 71 | 157 | 6.0 | 7.0 | 0.00 | 0.00 | 0.00 | 75 | 1021.4 |
| 20260506142544 | 70 | 34 | 4.0 | 5.0 | 0.00 | 0.00 | 0.00 | 76 | 1021.0 |
| 20260506142042 | 70 | 102 | 3.0 | 3.0 | 0.00 | 0.00 | 0.00 | 77 | 1021.3 |
| 20260506141540 | 70 | 266 | 2.0 | 2.0 | 0.00 | 0.00 | 0.00 | 77 | 1021.0 |
| 20260506141038 | 71 | 250 | 1.0 | 3.0 | 0.00 | 0.00 | 0.00 | 77 | 1021.1 |
| 20260506140535 | 70 | 215 | 0.0 | 0.0 | 0.00 | 0.00 | 0.00 | 78 | 1020.8 |
| 20260506140032 | 70 | 160 | 9.0 | 12.0 | 0.00 | 0.00 | 0.00 | 77 | 1021.0 |
| 20260506135529 | 70 | 246 | 3.0 | 3.0 | 0.00 | 0.00 | 0.00 | 79 | 1020.6 |
| 20260506135025 | 69 | 238 | 0.0 | 0.0 | 0.00 | 0.00 | 0.00 | 80 | 1020.7 |
| 20260506134522 | 69 | 227 | 0.0 | 0.0 | 0.00 | 0.00 | 0.00 | 81 | 1020.7 |
| 20260506134018 | 68 | 216 | 0.0 | 0.0 | 0.00 | 0.00 | 0.00 | 81 | 1020.4 |
| 20260506133515 | 68 | 199 | 2.0 | 5.0 | 0.00 | 0.00 | 0.00 | 82 | 1020.2 |
| 20260506133012 | 68 | 243 | 0.0 | 0.0 | 0.00 | 0.00 | 0.00 | 82 | 1020.4 |
| 20260506132509 | 68 | 257 | 0.0 | 0.0 | 0.00 | 0.00 | 0.00 | 83 | 1020.3 |
| 20260506132006 | 68 | 285 | 0.0 | 0.0 | 0.00 | 0.00 | 0.00 | 83 | 1020.5 |
| 20260506131503 | 68 | 208 | 0.0 | 0.0 | 0.00 | 0.00 | 0.00 | 83 | 1020.5 |
| 20260506131000 | 68 | 200 | 0.0 | 0.0 | 0.00 | 0.00 | 0.00 | 83 | 1020.4 |
| 20260506130456 | 67 | 275 | 0.0 | 0.0 | 0.00 | 0.00 | 0.00 | 83 | 1020.4 |
| 20260506125954 | 67 | 203 | 0.0 | 0.0 | 0.00 | 0.00 | 0.00 | 84 | 1019.9 |
| 20260506125452 | 67 | 98 | 0.0 | 0.0 | 0.00 | 0.00 | 0.00 | 84 | 1020.3 |
| 20260506124950 | 66 | 223 | 0.0 | 0.0 | 0.00 | 0.00 | 0.00 | 84 | 1020.7 |
| 20260506124447 | 66 | 239 | 0.0 | 0.0 | 0.00 | 0.00 | 0.00 | 85 | 1020.5 |
| 20260506123945 | 66 | 197 | 3.0 | 5.0 | 0.00 | 0.00 | 0.00 | 85 | 1020.5 |
| 20260506123443 | 66 | 248 | 0.0 | 0.0 | 0.00 | 0.00 | 0.00 | 85 | 1020.3 |
| 20260506122940 | 66 | 258 | 0.0 | 0.0 | 0.00 | 0.00 | 0.00 | 85 | 1020.3 |
| 20260506122437 | 66 | 259 | 0.0 | 0.0 | 0.00 | 0.00 | 0.00 | 85 | 1020.2 |
| 20260506121935 | 66 | 247 | 0.0 | 0.0 | 0.00 | 0.00 | 0.00 | 85 | 1020.4 |
| 20260506121432 | 65 | 236 | 0.0 | 0.0 | 0.00 | 0.00 | 0.00 | 85 | 1020.1 |
| 20260506120929 | 65 | 257 | 0.0 | 0.0 | 0.00 | 0.00 | 0.00 | 85 | 1020.2 |
| 20260506120426 | 65 | 258 | 0.0 | 0.0 | 0.00 | 0.00 | 0.00 | 85 | 1020.0 |
| 20260506115924 | 65 | 257 | 0.0 | 0.0 | 0.00 | 0.00 | 0.00 | 85 | 1019.8 |
| 20260506115421 | 65 | 257 | 0.0 | 0.0 | 0.00 | 0.00 | 0.00 | 85 | 1020.1 |
| 20260506114920 | 65 | 257 | 0.0 | 0.0 | 0.00 | 0.00 | 0.00 | 85 | 1019.8 |
| 20260506114417 | 64 | 251 | 0.0 | 0.0 | 0.00 | 0.00 | 0.00 | 85 | 1019.9 |
| 20260506113916 | 64 | 208 | 0.0 | 0.0 | 0.00 | 0.00 | 0.00 | 85 | 1019.7 |
| 20260506113413 | 64 | 256 | 0.0 | 0.0 | 0.00 | 0.00 | 0.00 | 85 | 1019.7 |
| 20260506112909 | 64 | 253 | 0.0 | 0.0 | 0.00 | 0.00 | 0.00 | 84 | 1019.7 |
| 20260506112407 | 64 | 256 | 0.0 | 0.0 | 0.00 | 0.00 | 0.00 | 84 | 1019.8 |
| 20260506111904 | 64 | 257 | 0.0 | 0.0 | 0.00 | 0.00 | 0.00 | 84 | 1019.9 |
| 20260506111402 | 64 | 175 | 0.0 | 0.0 | 0.00 | 0.00 | 0.00 | 84 | 1019.8 |
| 20260506110859 | 64 | 255 | 0.0 | 0.0 | 0.00 | 0.00 | 0.00 | 84 | 1019.8 |
| 20260506110356 | 64 | 207 | 0.0 | 0.0 | 0.00 | 0.00 | 0.00 | 84 | 1019.6 |
| 20260506105853 | 64 | 255 | 0.0 | 0.0 | 0.00 | 0.00 | 0.00 | 84 | 1019.8 |
| 20260506105349 | 64 | 208 | 0.0 | 0.0 | 0.00 | 0.00 | 0.00 | 84 | 1019.6 |
| 20260506104847 | 64 | 264 | 0.0 | 0.0 | 0.00 | 0.00 | 0.00 | 84 | 1019.3 |
| 20260506104344 | 64 | 160 | 2.0 | 2.0 | 0.00 | 0.00 | 0.00 | 84 | 1019.1 |
| 20260506103842 | 64 | 237 | 3.0 | 5.0 | 0.00 | 0.00 | 0.00 | 84 | 1019.5 |
| 20260506103339 | 64 | 249 | 0.0 | 0.0 | 0.00 | 0.00 | 0.00 | 83 | 1019.0 |
| 20260506102836 | 64 | 255 | 0.0 | 0.0 | 0.00 | 0.00 | 0.00 | 83 | 1019.1 |
| 20260506102334 | 63 | 262 | 0.0 | 0.0 | 0.00 | 0.00 | 0.00 | 83 | 1019.1 |
| 20260506101831 | 63 | 255 | 0.0 | 0.0 | 0.00 | 0.00 | 0.00 | 83 | 1018.8 |
| 20260506101327 | 63 | 255 | 0.0 | 0.0 | 0.00 | 0.00 | 0.00 | 82 | 1018.6 |
| 20260506100825 | 63 | 218 | 0.0 | 0.0 | 0.00 | 0.00 | 0.00 | 82 | 1018.5 |
| 20260506100324 | 63 | 257 | 0.0 | 0.0 | 0.00 | 0.00 | 0.00 | 82 | 1018.6 |
| 20260506095822 | 63 | 228 | 0.0 | 0.0 | 0.00 | 0.00 | 0.00 | 82 | 1018.5 |
| 20260506095318 | 63 | 245 | 0.0 | 0.0 | 0.00 | 0.00 | 0.00 | 81 | 1018.6 |
| 20260506094815 | 63 | 177 | 3.0 | 3.0 | 0.00 | 0.00 | 0.00 | 81 | 1018.7 |
| 20260506094314 | 63 | 263 | 0.0 | 0.0 | 0.00 | 0.00 | 0.00 | 81 | 1018.6 |
| 20260506093812 | 63 | 262 | 0.0 | 0.0 | 0.00 | 0.00 | 0.00 | 80 | 1018.7 |
| 20260506093308 | 63 | 188 | 0.0 | 0.0 | 0.00 | 0.00 | 0.00 | 80 | 1018.6 |
| 20260506092807 | 63 | 260 | 0.0 | 0.0 | 0.00 | 0.00 | 0.00 | 80 | 1018.5 |
| 20260506092306 | 63 | 267 | 0.0 | 0.0 | 0.00 | 0.00 | 0.00 | 80 | 1018.4 |
| 20260506091801 | 63 | 267 | 0.0 | 0.0 | 0.00 | 0.00 | 0.00 | 80 | 1018.2 |
| 20260506091258 | 63 | 267 | 0.0 | 0.0 | 0.00 | 0.00 | 0.00 | 79 | 1018.2 |
| 20260506090756 | 63 | 267 | 0.0 | 0.0 | 0.00 | 0.00 | 0.00 | 79 | 1018.2 |